Location: Blairvadach
(56.2780°N, 6.9720°W)
Time: 07:51:59
(UTC+00:00)

Envisat - Pass Details

Date: 21 February 2019
Orbit: 764 x 766 km, 98.2° (Epoch: 22 March)

Event Time Altitude Azimuth Distance (km) Brightness Sun altitude
Rises 06:54:33 0° 22° (NNE) 3,247 6.4 -7.0°
Reaches altitude 10° 06:57:24 10° 38° (NE) 2,316 5.9 -6.7°
Maximum altitude 07:01:17 22° 88° (E) 1,643 6.0 -6.1°
Drops below altitude 10° 07:05:11 10° 138° (SE) 2,302 6.4 -5.6°
Sets 07:07:59 0° 154° (SSE) 3,223 6.8 -5.2°
